Regional Weather Roundup
Issued by NWS Kansas City/Pleasant Hill, MO

Home | Current Version | Previous Version | Graphics & Text | Print | Product List | Glossary Off
Versions: 1 2 3 4 5 6 7 8 9 10 11 12 13 14 15 16 17 18 19 20 21 22 23 24 25 26 27 28 29 30 31 32 33 34 35 36 37 38 39 40 41 42 43 44 45 46 47 48 49 50

000
ASUS43 KEAX 211711
RWREAX

WEATHER ROUNDUP FOR EASTERN KANSAS AND NORTHWEST MISSOURI
NATIONAL WEATHER SERVICE KANSAS CITY/PLEASANT HILL MO
1200 PM CDT TUE OCT 21 2014

KSZ040-057-103>105-MOZ028-029-037-043-211800-
...KANSAS CITY METROPOLITAN AREA...

CITY           SKY/WX    TMP DP  RH WIND       PRES   REMARKS
K.C. INTL      SUNNY     67  47  48 CALM      30.14F
K.C. DOWNTOWN  SUNNY     67  46  47 CALM      30.14S
LEES SUMMIT    SUNNY     68  46  45 CALM      30.14F
OLATHE - IXD   SUNNY     70  50  49 CALM      30.14S
OLATHE - OJC   SUNNY     70  47  43 CALM      30.13S
LAWRENCE       SUNNY     68  48  48 CALM      30.13F

$$

MOZ001>008-011>017-020>025-030>033-038>040-044>046-053-054-211800-
...NORTHERN AND CENTRAL MISSOURI...

CITY           SKY/WX    TMP DP  RH WIND       PRES   REMARKS
ST. JOSEPH     SUNNY     67  32  27 CALM      30.14S
MOSBY          SUNNY     66  45  45 CALM      30.14S
WHITEMAN AFB   SUNNY     67  46  46 CALM      30.14S
CLINTON        SUNNY     68  48  49 CALM      30.15S
SEDALIA        SUNNY     70  43  37 W3        30.15S
WARSAW         NOT AVBL
MARSHALL       SUNNY     72  46  40 CALM      30.14F
CHILLICOTHE      N/A     65  48  54 SE3       30.15S
MOBERLY        SUNNY     66  45  45 NE3       30.15S
KIRKSVILLE     SUNNY     61  46  57 E9        30.16S

$$

MOZ041-047>049-056>058-063>065-088>090-097-211800-
...EASTERN AND SOUTHERN MISSOURI...

CITY           SKY/WX    TMP DP  RH WIND       PRES   REMARKS
ST. LOUIS INTL SUNNY     63  46  54 VRB6      30.15R
SPIRIT OF STL  SUNNY     63  48  58 N8        30.14S
COLUMBIA       SUNNY     69  45  41 N8        30.14R
JEFFERSON CITY SUNNY     65  47  52 VRB3      30.14S
MEXICO         SUNNY     68  52  56 NE8       30.14S
ROLLA          SUNNY     66  45  46 NW6       30.13S
LEBANON        SUNNY     70  45  40 N7        30.15F
OSAGE BEACH    SUNNY     66  46  48 SW5       30.15S
SPRINGFIELD    SUNNY     70  43  37 CALM      30.14S
BRANSON        SUNNY     73  59  60 CALM      30.16S
NEVADA         SUNNY     72  50  46 S3        30.15S
JOPLIN         SUNNY     70  58  65 CALM      30.14F
WEST PLAINS    SUNNY     68  45  43 CALM      30.15S

$$

IAZ060-094-KSZ022-034>040-054-083-096-NEZ052-066-093-211800-
...KANSAS...SOUTHEAST NEBRASKA AND IOWA...

CITY           SKY/WX    TMP DP  RH WIND       PRES   REMARKS
TOPEKA         SUNNY     70  50  49 E3        30.13F
MANHATTAN      SUNNY     71  54  54 CALM      30.11F
EMPORIA        SUNNY     71  54  54 S7        30.13S
CHANUTE        SUNNY     71  57  61 SE7       30.13S
WICHITA        MOSUNNY   75  53  46 SE15      30.10F
OMAHA          SUNNY     65  42  43 SE7       30.12F
LINCOLN        SUNNY     69  48  47 SE7       30.11F
FALLS CITY     SUNNY     67  45  45 S5        30.12F
LAMONI         SUNNY     65  48  54 NE5       30.14F
DES MOINES     SUNNY     60  46  59 E7        30.16S

$$




USA.gov is the U.S. government's official web portal to all federal, state and local government web resources and services.